RH
12 8 5 4 4 8 10 11 59 89 42 22 21 51 14 21 27 30 32 46 43 44 55 68 71 58 80 93 94 96 88 93 98 97 100 95 95 95 93 88 72 64 61 64
11 10 7 4 5 7 15 50 16 82 100 19 22 33 67 14 22 26 29 36 48 49 49 52 52 50 47 52 69 86 78 77 91 96 96 97 96 98 98 97 94 79 87 83
11 11 9 5 4 5 5 6 22 95 56 7 20 98 100 14 14 16 24 33 41 36 36 36 44 47 47 43 52 53 72 76 85 94 94 95 95 98 97 96 96 96 93 97
14 15 11 7 4 4 3 4 28 87 24 5 8 82 100 49 9 11 17 22 37 40 36 41 43 50 45 44 42 37 46 51 70 74 79 92 95 95 95 95 97 97 96 96
18 16 13 9 6 4 6 7 6 30 7 5 9 11 95 70 7 7 9 18 25 33 35 40 44 50 52 42 41 39 38 44 67 64 55 52 57 78 85 92 94 97 95 96
24 23 16 11 8 6 8 11 6 7 59 5 25 52 9 100 38 6 9 14 21 28 30 31 34 37 40 36 33 36 41 42 46 50 44 40 43 40 42 52 50 79 94 97
22 23 24 14 9 8 9 10 16 44 57 7 11 99 92 40 100 14 10 12 18 23 19 24 28 29 30 28 32 33 36 40 40 39 48 48 49 42 40 44 52 81 79 92
25 23 22 22 13 9 7 8 6 7 24 50 89 96 89 40 17 8 7 9 12 11 11 15 19 24 26 28 28 20 26 39 41 43 47 54 52 58 73 88 92 95 100 98
55 28 35 22 17 14 10 10 12 78 89 96 93 95 35 36 16 6 8 12 12 6 8 13 15 18 23 22 17 20 36 39 42 48 56 62 54 56 60 67 73 70 68 74
71 96 76 28 22 16 13 21 38 30 85 92 85 99 71 24 10 8 9 11 9 5 8 8 10 16 17 14 19 35 38 34 30 30 39 48 42 57 62 58 59 58 62 66
63 85 88 87 22 17 13 16 19 34 80 48 97 92 100 62 14 8 8 11 10 9 8 8 11 12 11 17 30 47 50 48 47 50 51 47 55 63 60 56 55 56 77 59
58 98 100 75 34 24 16 12 11 14 18 47 96 99 96 53 10 8 8 11 10 9 8 9 10 14 14 26 42 47 51 56 54 52 57 63 61 60 63 67 61 76 92 19
93 84 99 96 100 47 20 15 12 11 24 31 44 30 36 21 15 10 9 9 8 9 9 10 16 20 36 46 44 32 31 40 46 56 63 62 66 63 75 75 59 76 7 4
64 57 67 62 66 58 43 63 15 25 73 21 26 85 96 23 17 17 15 12 10 12 16 19 15 22 34 52 45 44 40 52 65 67 66 60 50 51 77 77 60 6 4 5
72 63 55 49 100 100 63 48 81 48 18 95 75 100 100 32 19 17 16 16 14 14 26 20 16 20 23 31 46 43 41 28 13 6 5 10 33 38 35 3 4 4 5 6
67 54 56 69 82 90 100 99 76 38 30 81 100 100 94 82 21 28 24 20 18 24 28 18 18 18 25 40 28 17 14 15 23 21 4 7 19 13 3 3 4 5 6 7
90 65 68 66 86 84 100 99 97 26 56 26 94 59 94 72 87 82 41 32 26 30 27 21 23 24 35 25 20 19 16 12 10 18 6 2 2 3 3 4 5 6 7 8
100 80 73 70 99 100 44 48 89 100 90 80 78 90 78 95 96 62 47 57 45 47 36 25 26 21 20 16 10 8 7 6 5 6 3 3 3 3 4 6 6 6 8 9
100 92 80 73 94 96 57 38 37 40 52 100 88 93 98 90 60 34 56 61 75 57 50 40 36 25 13 8 10 8 6 5 5 3 3 3 4 5 6 6 6 8 10 11
100 98 88 84 91 99 53 65 34 34 34 35 99 100 100 90 38 93 84 54 66 68 55 44 40 29 18 9 8 7 6 5 4 3 4 4 4 6 6 6 8 10 12 12
100 100 96 92 100 94 100 100 90 92 40 64 84 96 100 82 32 58 91 56 54 54 60 52 44 30 9 8 7 7 6 5 4 4 4 4 5 7 7 7 8 11 12 13
100 100 100 96 99 100 100 100 100 99 50 56 59 92 48 50 36 45 76 42 42 36 33 48 41 24 9 7 7 8 7 7 6 5 5 5 6 7 7 8 9 11 12 13
100 100 100 100 100 96 100 100 100 95 80 46 37 64 62 45 36 35 61 29 43 42 30 30 36 27 11 7 6 7 7 8 8 7 6 6 7 8 8 8 10 11 12 13
94 97 100 100 100 100 100 100 100 100 88 82 47 38 37 51 50 34 31 34 34 48 48 23 28 28 15 6 6 6 8 9 8 8 7 8 8 8 9 9 10 12 13 14
66 80 95 100 100 100 99 100 100 100 98 89 71 60 65 74 64 48 35 29 35 47 60 24 21 27 23 8 6 6 7 8 9 8 8 8 8 9 9 9 10 11 13 14
100 100 99 97 100 100 100 86 100 100 100 100 99 89 77 93 100 65 52 48 39 35 43 64 33 23 21 14 7 6 5 7 8 9 9 9 9 11 11 11 12 12 14 16
Wind_Speed
43 44 43 44 42 40 38 36 29 29 33 31 25 29 29 24 27 27 27 27 27 32 27 28 29 28 24 26 22 26 23 25 26 30 55 52 54 52 51 46 44 43 42 40
45 46 43 42 42 41 40 34 40 27 40 31 31 31 37 32 31 31 30 29 28 28 27 30 28 26 25 24 22 24 24 24 29 26 20 40 42 54 52 50 48 47 46 46
46 42 41 40 41 42 44 42 35 36 44 30 34 32 37 34 37 36 33 32 31 29 28 28 27 28 27 27 27 25 24 23 23 32 26 23 21 19 30 39 46 59 41 47
45 43 41 40 41 42 44 41 37 33 46 36 38 33 38 42 36 38 36 34 32 31 27 26 27 28 29 27 26 27 27 25 26 19 20 24 24 20 20 20 27 31 33 39
45 44 43 43 40 41 39 39 38 37 39 35 38 42 31 39 36 38 36 37 37 33 31 31 31 30 27 26 27 28 27 26 23 21 16 17 17 20 21 22 24 29 34 32
46 44 42 39 39 40 35 37 37 39 33 42 37 38 43 33 32 38 36 39 39 38 37 37 36 34 32 32 30 30 30 28 26 24 25 24 22 20 22 28 26 25 27 32
51 49 46 43 43 43 40 42 38 39 40 46 40 34 37 40 33 33 30 38 39 41 40 41 40 35 35 35 33 33 33 31 30 29 27 25 23 23 23 25 26 26 26 27
53 52 50 49 48 45 45 46 44 47 42 37 31 37 37 32 42 35 31 37 38 37 39 41 37 34 35 34 32 33 34 33 31 31 29 27 25 21 21 24 23 19 18 19
41 48 45 49 47 46 46 48 39 27 26 25 32 36 39 35 35 30 31 33 35 33 38 35 36 33 32 32 33 33 31 33 34 35 33 29 25 25 24 23 21 20 21 22
36 29 40 48 49 48 47 37 38 40 33 35 28 33 34 33 27 26 33 36 34 37 37 33 30 30 30 30 28 27 28 30 33 33 32 30 29 26 25 25 26 24 23 22
48 42 35 39 53 49 49 47 43 36 35 35 28 30 28 33 21 31 35 34 35 38 33 32 30 29 30 29 27 25 25 26 27 28 28 29 28 27 27 28 26 25 25 20
51 45 36 41 47 45 46 47 44 47 45 43 29 25 33 26 21 27 35 35 34 33 31 30 25 25 27 22 19 22 27 30 31 31 28 28 27 25 26 28 28 26 20 17
45 53 44 43 32 44 49 50 49 43 43 44 39 36 39 27 23 28 32 34 34 33 32 24 22 20 21 20 19 23 23 21 22 23 25 25 24 23 23 26 25 22 16 18
53 56 57 54 48 39 44 42 47 46 44 45 46 33 31 23 27 31 32 32 32 32 28 23 23 22 22 22 21 20 20 19 19 21 22 23 23 24 23 11 12 17 17 18
48 51 55 58 44 29 42 44 42 46 51 43 37 36 32 26 26 31 34 33 32 31 27 23 23 21 24 23 22 19 17 17 17 17 20 22 21 22 21 18 15 16 17 17
46 50 54 57 51 41 29 40 45 49 47 43 37 31 29 26 28 32 35 34 32 30 27 25 23 19 22 22 21 20 19 19 20 18 18 20 20 19 18 17 17 17 17 17
41 48 51 57 55 48 44 40 41 51 45 48 40 38 26 31 31 36 34 35 33 30 28 27 22 21 22 22 22 21 23 24 21 20 18 18 17 17 18 19 19 17 17 17
42 44 46 50 47 52 61 58 44 39 41 44 38 34 33 34 35 36 35 35 34 30 30 29 26 24 24 23 21 20 21 21 22 22 20 20 20 20 21 21 19 17 17 17
43 43 42 48 45 49 59 58 54 55 51 40 39 35 30 37 38 41 39 39 36 35 31 28 27 28 26 22 21 19 19 21 21 21 21 21 21 22 22 21 19 18 17 18
40 43 42 36 44 42 47 52 55 49 52 50 40 39 39 41 45 35 42 38 38 37 31 29 30 28 28 24 22 21 20 21 21 21 22 23 23 23 23 22 20 19 18 18
39 44 44 37 33 34 41 39 43 47 52 40 38 45 41 42 42 34 36 35 37 34 37 35 31 29 27 28 23 21 22 22 24 24 24 24 24 24 24 23 21 21 20 19
38 32 42 46 35 35 33 45 44 46 52 47 42 37 42 44 36 36 36 38 37 36 34 36 31 28 30 28 24 23 23 26 27 26 26 25 25 24 25 24 25 24 22 22
19 31 28 41 45 42 31 39 42 44 49 49 45 42 40 38 39 40 39 42 41 40 33 34 34 32 31 29 27 25 24 28 29 29 28 27 25 25 25 26 27 25 25 24
43 39 38 40 36 42 44 37 38 34 40 41 44 43 43 35 37 40 43 45 41 44 38 35 36 35 31 30 31 30 30 29 27 27 29 29 27 25 26 28 27 26 26 27
36 45 49 38 45 29 45 50 38 38 40 41 41 39 36 36 38 40 41 43 42 44 43 34 36 37 35 33 35 33 34 32 28 27 29 31 28 27 27 28 28 28 28 27
32 27 29 41 45 34 35 43 41 40 34 37 39 43 43 41 44 44 42 42 40 41 40 41 34 36 35 35 36 36 36 34 33 29 28 30 30 28 27 27 28 28 29 29
Wind_Direction
227 227 225 225 223 222 229 224 217 218 238 220 220 218 237 235 235 236 239 242 239 240 244 250 258 264 276 266 255 247 269 259 252 264 233 234 238 238 240 242 245 246 247 250
227 226 224 224 225 221 220 224 217 217 234 211 224 227 246 231 240 241 242 242 238 240 241 244 252 261 265 272 271 269 275 275 263 259 246 247 254 249 235 243 245 244 243 245
228 229 227 224 222 220 220 222 215 210 232 218 222 226 230 236 234 237 236 240 240 241 243 251 254 254 256 261 263 271 276 292 284 267 258 255 255 256 258 262 262 248 262 261
223 224 220 221 221 221 222 222 217 212 233 229 225 225 228 241 232 238 236 241 245 245 247 249 252 254 260 267 273 276 278 289 286 286 279 271 257 265 263 274 270 262 269 268
219 220 218 219 218 221 221 224 222 224 234 226 232 229 226 252 238 243 244 240 244 246 248 250 255 261 267 269 274 275 276 272 275 277 283 287 297 301 294 284 281 285 277 269
220 220 218 220 218 220 217 224 221 222 223 225 221 233 223 231 244 239 240 242 244 247 249 251 255 259 264 267 269 268 267 264 262 265 273 278 275 274 278 286 284 289 283 275
220 221 217 215 215 216 213 218 215 218 219 224 221 225 233 211 238 242 239 244 245 248 253 255 256 258 259 263 268 268 266 266 263 265 267 270 273 275 272 267 270 267 267 276
221 221 220 217 218 222 217 221 222 225 224 227 219 229 230 234 228 242 239 245 246 249 252 255 260 260 258 261 263 268 266 259 260 262 264 267 273 279 279 275 274 273 271 269
228 223 229 223 219 214 217 222 223 226 223 227 232 238 236 234 236 239 242 247 248 246 249 253 255 254 252 255 262 262 257 254 256 259 261 264 266 267 271 276 276 272 271 270
205 225 225 227 219 220 224 223 213 213 224 227 226 242 253 237 236 235 234 243 243 247 249 253 258 256 257 260 257 255 250 253 257 259 261 262 262 261 263 270 269 266 268 273
212 226 214 225 219 220 221 218 218 222 224 231 228 223 238 251 226 229 237 239 242 252 255 254 254 256 256 255 253 250 252 251 252 252 256 258 261 261 262 263 261 262 264 265
217 218 211 229 227 220 226 228 225 221 226 228 228 219 232 241 240 234 237 243 249 254 254 252 253 252 257 265 257 258 258 255 252 251 255 257 257 258 261 258 252 259 258 255
210 217 218 214 225 219 220 225 226 229 231 232 235 233 240 243 240 233 236 239 244 248 251 249 248 250 252 248 260 256 250 246 245 247 248 249 252 257 261 252 243 255 239 253
224 217 221 223 229 228 221 217 224 224 226 227 232 231 245 233 231 235 239 240 243 247 247 244 246 243 246 251 239 244 239 234 240 248 252 253 253 251 259 257 215 229 246 259
224 223 226 222 209 222 223 225 221 219 227 226 229 228 227 235 231 238 238 240 242 246 248 248 245 240 241 230 225 230 229 232 243 251 254 253 249 249 250 236 232 246 255 255
228 226 222 224 223 196 218 227 228 227 226 229 225 230 231 226 226 235 240 240 240 242 240 240 243 245 244 220 220 225 229 236 242 251 248 246 246 243 234 234 245 253 253 259
225 226 223 225 222 213 215 215 224 224 226 229 226 230 217 219 223 227 234 242 241 237 239 240 238 237 228 221 225 231 238 241 241 241 246 241 238 234 236 244 248 247 255 258
224 228 224 226 221 224 222 223 211 224 227 226 226 226 214 228 217 229 229 233 239 233 230 234 235 233 231 232 237 243 247 246 240 239 236 235 233 236 242 242 241 246 248 250
222 226 225 224 226 227 225 225 223 224 222 219 226 218 211 227 223 223 225 225 229 236 235 233 234 233 233 237 242 248 247 240 236 234 232 234 239 239 239 236 237 241 245 248
209 221 221 224 227 227 226 230 229 229 231 223 209 215 214 223 217 218 227 226 228 236 240 240 240 239 237 238 241 244 241 237 230 229 231 236 241 241 239 236 237 241 246 247
201 212 221 217 220 218 218 211 213 220 226 225 219 213 208 224 218 216 234 228 233 236 237 238 238 238 236 235 238 241 236 231 230 228 233 240 244 243 242 240 240 243 246 247
215 192 214 217 212 211 212 211 212 218 224 223 220 220 219 224 219 224 231 226 228 231 238 243 240 234 236 234 233 238 240 235 230 230 234 241 247 247 245 242 243 244 247 250
174 214 196 208 221 217 211 202 209 220 221 223 223 223 220 216 219 222 227 231 229 234 238 238 236 233 231 232 232 236 238 239 238 234 235 239 243 245 245 244 248 249 250 253
223 222 208 203 201 215 220 206 204 204 215 217 222 224 227 225 222 221 226 233 232 235 237 235 232 232 232 229 230 231 235 239 239 241 241 239 239 242 244 246 249 253 254 256
227 232 221 200 201 189 220 224 215 215 215 216 218 215 214 216 221 222 225 230 233 239 235 235 230 230 230 228 228 230 234 239 242 241 244 242 238 239 243 246 249 253 257 260
199 202 220 227 204 189 195 225 227 227 223 222 223 225 226 223 216 220 223 227 230 234 239 236 235 229 229 229 231 234 236 238 241 240 244 249 242 239 242 246 250 252 255 259